Flag for Norway Weather past 2 weeks in Lillesand, Norway

Now
43 °F

Quite cool.


Feels Like: 39 °F
Forecast: 35 / 44 °F
Wind: 6 mph from West

Location: Kristiansand / Kjevik

Current Time: Mar 31, 2015 at 8:33:50 PM

Latest Report: Mar 31, 2015 at 7:00 PM


Visibility: N/A

Pressure: 29.12 "Hg

Humidity: 67%

Dew point: 32 °F

Location of LillesandLocation

Historic Weather in Lillesand — Graph

°F

Lillesand temperature yesterday

Maximum temperature yesterday: 49 °F (at 5:00 PM)
Minimum temperature yesterday: 34 °F (at 4:00 AM)
Average temperature yesterday: 42 °F

Past Weeks' High & Low Weather Summary

 TemperatureHumidityPressure
High51 °F (Mar 19, 6:00 PM)100% (Mar 26, 6:00 AM)30.66 "Hg (Mar 26, 6:00 AM)
Low25 °F (Mar 28, 6:00 AM)38% (Mar 21, 11:00 AM)28.94 "Hg (Mar 30, 3:00 AM)
Average39 °F82%29.89 "Hg
* Reported Mar 16 6:00 PM — Mar 31 7:00 PM, Lillesand, Weather by CustomWeather, © 2015

Note: Actual official high and low records may vary slightly from our data, if they occured in-between our weather recording intervals... More about our weather records

Advertising

Lillesand weather history for previous 24 hours

 ConditionsComfort  
Time TempWeatherWind HumidityBarometerVisibility
7:00 PM
Tue, Mar 31
43 °FQuite cool.6 mph67%29.12 "HgN/A
6:00 PM43 °FQuite cool.6 mph71%29.12 "HgN/A
5:00 PM42 °FQuite cool.7 mph81%29.09 "HgN/A
4:00 PM42 °FQuite cool.5 mph77%29.09 "HgN/A
3:00 PM43 °FQuite cool.2 mph73%29.06 "HgN/A
2:00 PM42 °FQuite cool.5 mph67%29.06 "HgN/A
1:00 PM39 °FChilly.5 mph83%29.03 "HgN/A
12:00 PM37 °FChilly.6 mph88%29.00 "HgN/A
11:00 AM35 °FChilly.6 mph88%29.00 "HgN/A
10:00 AM35 °FChilly.5 mph88%28.97 "HgN/A
9:00 AM33 °FChilly.5 mph91%28.97 "HgN/A
8:00 AM33 °FChilly.6 mph89%28.97 "HgN/A
7:00 AM33 °FChilly.6 mph91%28.97 "HgN/A
6:00 AM31 °FChilly.6 mph92%29.00 "HgN/A
5:00 AM30 °FChilly.3 mph94%29.03 "HgN/A
4:00 AM31 °FChilly.5 mph96%29.09 "HgN/A
3:00 AM31 °FChilly.2 mph93%29.15 "HgN/A
2:00 AM33 °FChilly.2 mph88%29.18 "HgN/A
1:00 AM36 °FChilly.3 mph80%29.21 "HgN/A
12:00 AM36 °FChilly.3 mph79%29.23 "HgN/A
11:00 PM
Mon, Mar 30
38 °FChilly.3 mph71%29.23 "HgN/A
10:00 PM39 °FChilly.6 mph69%29.26 "HgN/A
9:00 PM41 °FQuite cool.3 mph61%29.26 "HgN/A
8:00 PM43 °FQuite cool.5 mph56%29.23 "HgN/A
Weather by CustomWeather, © 2015

See weather overviewHow to use our weather pages